Theta_e
289 287 285 290 289 288 286 287 289 292 298 299 298 298 301 302 298 298 299 300 298 312 321 322 324 325 326 326 325 326 327 328 328 327 327 328 327 329 330 330 329 327 327 326
283 280 288 292 292 290 288 284 283 292 296 297 293 296 301 304 301 301 302 300 300 299 300 305 322 325 326 326 326 326 327 327 328 329 326 326 327 329 330 330 330 329 327 327
279 282 289 289 288 287 287 285 283 286 290 293 292 291 295 300 303 304 304 304 302 302 302 299 316 323 325 325 327 327 327 327 329 328 328 326 325 324 325 327 329 328 327 326
280 285 285 285 285 288 284 289 288 287 284 284 292 283 291 298 298 302 305 306 303 303 301 304 314 318 320 322 325 327 327 327 329 328 328 327 327 324 325 326 326 326 327 327
277 283 282 282 284 289 286 289 288 287 285 284 285 284 286 296 296 299 302 304 304 304 299 302 304 304 303 308 312 319 324 323 325 326 327 325 325 327 327 326 325 325 327 327
280 287 286 286 287 288 292 289 286 286 285 278 283 285 282 288 295 299 302 304 303 295 294 295 297 300 302 305 307 310 311 311 311 318 320 323 327 328 327 326 325 325 325 327
278 279 284 288 283 288 287 285 277 276 276 275 284 282 287 290 291 296 301 304 301 294 294 296 297 298 300 304 305 306 305 305 307 308 309 312 314 315 320 324 327 326 327 327
269 268 279 286 283 282 285 284 278 270 273 276 283 280 285 293 291 291 292 293 299 292 295 297 299 299 298 300 303 303 303 300 303 303 303 303 305 309 311 311 314 315 317 319
268 271 284 285 286 285 283 280 286 280 273 275 279 284 287 287 289 291 292 293 293 295 296 297 299 299 298 299 299 299 299 299 299 299 299 298 299 300 301 302 303 304 305 307
279 271 281 284 287 288 284 289 279 281 265 266 276 279 281 283 286 289 291 292 293 295 296 296 296 297 297 297 297 297 298 297 298 298 298 297 297 299 299 299 298 299 300 301
282 278 276 281 282 279 281 280 283 284 277 272 271 276 283 284 287 289 290 292 293 293 293 293 293 293 294 294 294 294 294 294 295 295 295 295 295 296 296 296 296 296 297 298
283 279 273 275 284 286 286 282 283 279 276 276 277 275 285 285 287 290 290 290 290 291 290 290 290 290 290 290 289 290 291 291 292 293 293 292 293 293 293 292 293 293 293 293
281 277 264 270 278 282 282 284 285 284 283 277 274 274 285 288 288 289 289 289 288 288 287 287 287 287 286 286 286 287 287 289 290 290 289 289 289 289 289 289 290 290 290 290
284 280 269 265 270 279 276 280 282 281 278 279 277 277 280 283 285 286 287 286 286 285 286 285 285 285 285 285 284 284 285 286 287 287 286 286 286 286 286 287 287 287 288 288
281 271 272 275 279 280 279 276 279 278 280 279 281 279 283 284 286 286 286 285 285 284 284 284 284 284 283 283 283 283 283 284 285 284 283 283 283 284 284 284 285 285 285 285
281 272 277 275 279 279 277 279 279 279 278 281 281 280 284 284 285 285 285 285 284 284 284 284 284 284 283 283 282 282 281 282 282 281 280 281 281 281 281 282 282 282 283 283
276 276 273 262 277 276 271 276 277 278 282 283 280 282 285 284 286 285 284 284 284 284 284 283 283 283 282 282 281 280 280 281 281 280 280 279 279 279 280 280 280 280 280 281
275 275 270 264 269 264 278 280 281 279 284 284 284 285 287 288 287 286 285 285 284 284 283 283 282 281 281 280 279 280 280 280 280 278 278 278 278 278 279 279 279 278 279 279
278 275 268 263 263 271 276 278 279 280 282 286 285 286 285 285 285 282 284 285 285 284 284 283 282 281 280 279 279 279 278 278 279 278 277 277 277 277 277 277 276 277 278 278
277 275 273 258 261 261 274 278 283 283 278 285 285 284 283 286 281 280 284 285 284 284 283 282 281 280 279 278 279 279 278 277 277 277 277 276 276 276 275 275 276 277 277 278
266 265 266 258 261 266 276 279 281 274 278 285 285 285 284 283 284 285 284 283 283 282 282 281 280 279 279 278 278 277 276 276 277 276 276 275 275 275 275 275 276 276 276 276
265 260 259 256 257 263 276 279 276 279 282 285 285 285 283 283 282 283 283 282 281 281 280 279 278 278 277 278 277 276 275 276 274 273 273 272 272 274 275 274 274 274 274 273
266 271 266 268 269 276 278 278 281 282 281 281 282 282 283 282 281 281 281 281 281 280 280 279 278 277 276 276 276 275 275 274 273 270 268 268 270 273 274 272 273 271 271 270
271 275 270 271 275 276 278 279 280 281 280 280 281 282 282 281 281 281 281 281 280 280 279 277 276 275 275 274 275 274 274 273 268 266 268 269 269 270 270 272 272 270 269 269
273 272 270 271 276 277 279 279 280 280 281 280 280 281 281 281 280 280 280 280 280 279 278 277 276 275 274 273 273 270 271 269 269 268 268 268 268 267 268 269 269 271 272 273
275 274 273 271 277 277 277 279 280 280 281 281 281 279 280 280 280 280 279 279 278 278 276 275 275 273 272 270 269 268 266 267 265 266 266 266 266 265 267 267 268 272 275 277
Wind_Speed
3 6 14 12 10 9 2 5 13 3 6 7 16 11 17 8 7 9 8 8 7 10 9 8 9 9 7 8 9 12 12 10 9 6 8 7 8 7 6 6 9 9 8 8
4 13 10 7 9 13 13 5 7 6 4 5 3 14 14 14 12 10 12 9 9 5 6 6 11 12 13 12 11 12 13 12 11 8 4 3 4 4 5 6 6 8 8 8
8 6 8 12 14 12 15 18 4 3 4 3 2 7 10 10 11 7 8 7 6 10 8 3 7 13 11 12 15 12 11 11 11 8 4 2 2 1 2 3 4 5 7 7
8 10 15 12 12 14 13 8 10 10 2 4 5 11 12 16 13 18 17 13 9 10 5 2 4 7 9 7 7 8 8 8 10 8 7 7 7 6 3 4 3 5 7 7
8 3 6 12 19 11 6 6 14 11 3 4 5 3 6 11 20 22 15 11 9 8 9 7 6 6 5 5 5 5 6 5 2 5 4 4 4 4 3 3 5 5 5 7
7 1 3 3 8 17 5 8 3 5 8 8 15 9 5 7 10 13 9 14 10 10 9 8 7 7 7 6 6 8 8 5 5 4 2 1 3 4 4 4 4 3 3 4
4 16 8 6 4 5 10 6 6 9 9 17 14 7 15 2 3 5 14 14 11 12 12 12 12 9 7 9 7 7 8 8 6 5 6 5 4 3 3 3 2 3 3 2
3 7 12 11 14 3 12 8 2 6 11 19 6 14 12 7 5 2 4 8 7 8 7 8 7 10 7 7 8 10 9 8 7 6 6 5 6 3 3 4 3 3 4 4
4 7 1 8 6 12 6 13 14 4 2 5 6 15 6 2 4 4 5 5 11 12 9 9 9 7 8 9 7 6 11 12 8 8 6 6 6 6 5 6 5 4 5 4
5 5 6 1 10 12 7 7 7 7 4 5 5 9 13 6 6 4 6 6 7 11 12 9 8 9 8 10 9 8 6 12 10 8 6 5 5 6 6 5 6 5 4 5
2 2 4 2 5 8 5 13 6 4 5 5 4 6 3 7 6 10 9 7 10 11 11 11 10 10 10 10 9 8 8 10 11 6 6 7 6 6 6 5 5 6 6 7
4 4 4 10 2 8 6 14 15 5 5 4 1 5 4 7 6 8 10 9 9 11 11 10 10 10 10 10 8 9 8 12 7 6 7 9 9 8 7 6 6 6 5 5
7 2 3 8 2 2 5 5 5 10 4 4 7 5 6 8 11 8 12 11 10 10 11 10 9 9 9 8 8 9 10 9 7 9 8 8 8 8 8 8 7 6 6 6
8 4 7 7 5 1 4 3 1 3 7 5 5 5 2 5 14 12 9 8 8 8 9 9 8 7 8 9 9 8 9 7 6 8 8 9 8 7 7 7 7 7 6 6
2 5 4 7 7 5 4 7 8 9 10 15 5 6 12 10 15 13 13 9 10 8 8 7 8 7 7 8 7 7 7 7 6 7 7 7 5 5 5 5 5 6 6 7
1 4 5 5 6 5 9 12 11 16 19 17 10 1 5 6 8 8 10 12 10 8 7 7 8 8 7 6 6 6 6 6 5 7 7 6 6 6 6 6 6 7 7 8
4 3 4 6 3 6 7 7 9 13 14 16 18 9 11 9 12 11 8 8 10 8 7 8 7 6 6 6 5 6 6 5 6 6 6 6 5 5 6 6 6 6 5 5
4 4 1 5 5 2 4 5 7 16 4 7 11 20 22 19 9 7 4 8 8 8 7 7 6 6 6 4 5 5 5 5 5 4 4 4 5 6 5 5 5 5 4 5
7 2 2 0 3 8 5 2 3 6 2 6 15 16 13 12 7 3 3 4 6 7 7 6 5 5 5 5 4 5 4 4 4 4 4 6 5 4 5 5 5 4 4 4
3 3 2 3 1 5 5 2 3 7 2 5 11 17 19 14 9 5 7 7 8 8 7 7 6 5 6 4 4 5 3 4 5 5 4 4 5 5 6 5 6 4 4 7
1 2 5 2 4 9 9 6 2 4 0 2 6 14 13 6 3 7 9 6 6 6 8 7 6 6 5 4 4 3 1 1 0 2 4 4 4 5 5 5 4 6 7 7
8 7 5 3 0 8 3 4 2 2 5 3 4 4 7 7 6 9 10 9 9 9 7 6 6 5 4 4 4 4 4 2 1 1 2 3 4 4 4 4 4 4 5 5
4 7 5 9 8 3 3 2 4 1 1 2 7 5 7 8 6 8 7 8 7 8 7 7 7 7 5 5 5 5 5 4 3 1 3 3 3 3 3 3 5 3 3 3
6 4 4 3 5 10 7 4 5 1 2 3 5 8 9 9 10 9 8 8 8 7 7 5 6 6 6 5 6 5 4 3 3 3 3 2 2 3 3 3 4 3 2 3
6 4 6 6 9 6 9 6 6 3 4 2 5 6 9 9 7 6 7 7 7 6 5 6 8 7 8 7 7 4 4 4 3 2 1 3 2 2 3 4 4 4 4 5
9 11 10 9 7 6 5 8 8 7 7 9 8 4 3 6 9 8 8 7 7 8 7 7 8 7 8 6 4 5 5 5 4 2 2 2 2 1 3 4 6 8 12 13
Wind_Direction
292 230 225 224 225 277 344 314 238 206 223 180 222 217 232 229 216 205 204 199 193 206 229 204 201 199 191 183 182 189 188 190 184 178 190 198 203 202 210 215 209 201 208 205
309 255 245 272 214 233 265 266 288 255 241 212 228 233 239 212 215 202 206 203 188 194 198 222 212 184 196 190 191 192 194 186 190 191 184 168 181 192 190 193 206 205 205 205
220 247 227 243 249 219 233 237 245 304 321 247 350 246 223 241 240 218 235 203 207 192 218 280 216 195 179 187 196 196 192 181 188 184 146 111 83 43 173 195 200 199 198 204
249 245 258 255 269 246 237 203 214 262 326 238 168 263 209 209 228 226 225 228 198 213 185 93 180 169 182 185 163 175 178 183 192 172 187 198 210 216 208 222 210 206 198 206
249 223 224 244 240 250 238 202 201 227 209 334 235 256 237 183 224 221 215 212 215 196 163 149 132 106 84 95 108 122 123 107 217 160 162 181 221 241 227 223 233 229 218 214
238 309 234 291 306 222 295 262 232 196 214 244 219 211 210 200 205 220 208 210 194 154 142 129 118 114 100 92 93 92 94 62 51 85 111 143 247 256 235 247 254 250 249 250
293 251 237 194 270 237 204 223 169 189 189 231 187 193 239 246 203 206 208 204 185 159 152 147 149 137 130 120 109 104 103 81 58 62 74 58 45 32 23 347 306 270 259 242
202 312 189 187 203 223 206 235 215 182 193 229 108 223 217 223 133 118 259 247 142 123 134 135 120 124 112 93 122 124 108 87 73 61 52 57 57 45 50 43 10 21 17 4
164 263 141 203 182 184 191 208 238 307 326 170 181 241 311 143 94 98 59 106 136 132 121 116 98 79 86 90 67 92 108 102 84 71 55 45 45 48 44 43 37 17 12 358
235 262 232 48 202 225 222 139 176 219 178 223 218 222 219 178 169 136 130 109 99 115 111 104 96 97 87 79 81 69 78 93 95 96 93 65 64 59 47 39 34 30 23 9
298 208 290 31 236 191 186 240 261 217 198 182 156 240 197 198 201 171 139 122 118 110 107 107 99 88 85 81 81 78 70 80 65 61 66 82 55 53 58 56 45 18 10 3
278 235 235 230 293 190 249 234 210 259 177 220 230 273 349 249 180 127 117 105 95 98 100 95 92 92 83 78 68 66 65 63 61 65 55 51 42 35 38 32 22 19 18 2
1 273 347 326 3 58 235 199 224 253 274 236 184 244 345 113 98 99 119 113 105 104 98 92 85 81 81 79 74 60 53 58 51 55 53 49 40 35 32 23 12 15 12 10
321 244 184 207 219 250 283 266 341 250 233 228 264 159 160 153 130 124 112 100 104 103 105 100 91 87 83 71 65 62 60 50 55 59 53 49 37 24 23 10 13 14 6 10
291 265 225 243 248 255 256 270 274 256 260 220 209 228 188 173 153 144 130 119 114 111 107 108 106 96 84 75 69 64 57 50 48 64 60 46 31 26 23 16 6 5 13 6
269 279 307 278 244 250 281 281 272 259 250 254 170 167 123 97 90 124 137 138 137 131 119 104 92 86 81 79 74 73 64 56 56 55 48 35 26 17 11 4 1 9 4 358
272 336 304 268 326 324 300 241 241 261 226 187 178 176 147 131 148 157 148 148 147 140 125 115 109 104 97 84 75 66 61 58 58 51 37 28 10 358 1 353 355 359 347 330
274 302 29 269 344 272 236 213 210 262 177 155 115 149 158 154 138 134 162 148 144 137 128 122 124 115 113 96 79 92 78 77 85 71 51 25 13 358 343 342 346 339 332 341
209 282 280 256 256 294 303 13 355 333 68 335 139 135 129 116 88 49 138 109 130 125 128 132 131 124 119 115 123 117 107 104 79 48 29 17 356 327 343 341 344 336 329 308
152 5 235 21 159 238 266 7 140 312 76 338 136 137 133 142 155 221 158 129 122 121 130 136 135 124 135 139 132 110 83 56 42 23 353 338 347 343 335 327 325 314 323 320
38 358 219 190 260 283 265 299 169 19 334 131 121 135 137 104 131 136 118 90 116 132 141 139 137 145 142 131 109 105 106 235 174 348 339 344 339 326 314 319 322 327 330 328
174 150 207 75 45 283 238 326 53 245 321 118 81 93 95 99 99 128 121 138 150 149 142 135 133 161 171 166 161 185 207 180 198 250 328 323 317 320 321 323 316 316 311 314
260 192 184 191 221 242 295 303 320 320 193 132 113 119 117 125 130 134 140 152 166 161 162 176 176 181 188 185 189 185 194 182 188 182 275 264 293 304 318 317 309 301 282 287
251 188 209 70 253 247 244 241 284 317 66 156 135 144 145 147 159 167 164 171 181 189 187 155 162 192 204 195 200 207 184 171 157 218 265 317 277 308 293 281 286 277 263 279
209 124 191 265 274 297 264 205 205 191 134 94 104 147 169 138 166 154 174 191 199 190 175 177 188 200 207 191 206 184 165 166 199 222 261 254 249 275 287 275 283 293 274 277
186 195 192 218 221 175 235 207 177 177 198 175 149 158 188 173 177 171 193 196 189 195 186 193 202 199 206 193 190 189 189 176 171 230 251 244 243 274 332 329 316 308 302 309